STARLINK-5194 (54186 NORAD) Tracking and Keplerian Element Data

This shows tracking and keplerian element data for the satellite.

Feedback or suggestion? Click here.




ElementValue
Catalog54186
NameSTARLINK-5194
Epoch Orbit407
Epoch Day325.25001157
Epoch Year2022
RAAN24.0901
Inclination53.2177
Eccentricity0.0003057
Argument of Perigee10.7525
Mean Anonmoly19.6632
Mean Motion15.73194061
Decay Rate-0.00102894
L11 54186U 22141AF 22325.25001157 -.00102894 00000+0 -73764-3 0 9994
L22 54186 53.2177 24.0901 0003057 10.7525 19.6632 15.73194061 4077



Live tracking and technical data element details for STARLINK-5194 (NORAD 54186). STARLINK-5194 can be tracked NOW for your location showing map with azimuth and elevation plus other details from your city location.







IsCatalogInMostPopularTable: catalog: 54186, numindb: 7
Update: records affected: 1



GetName: 54186 STARLINK-5194

Hit Count: updated at: Sun, 04 Dec 2022 22:33:48 GMT